This demonstration page uses our WeatherBlox Daily Observations layout. Learn more.

40.92945, -100.16068

Hourly Observations for January 14, 2020

Temp ( °F °C ) Dew Point ( °F °C ) Humidity (%) Winds ( mph kmh ) Pressure ( in mb ) Visibility ( mi km ) Precip ( " mm )
12:15 am 00:15 Clear 22 -5.5 20 -6.7 91 91 WSW 3 6 30.14 1021 10 16.0934 0 0
12:35 am 00:35 Clear 23 -5.2 20 -6.4 91 91 Calm 30.15 1021 10 16.0934 0 0
12:55 am 00:55 Clear 22 -5.3 20 -6.5 91 91 Calm 30.15 1021 10 16.0934 0 0
1:15 am 01:15 Clear 20 -6.5 19 -7.4 93 93 N 6 9 30.16 1021 10 16.0934 0 0
1:35 am 01:35 Clear 19 -7 18 -7.8 94 94 NNW 6 9 30.18 1022 10 16.0934 0 0
1:55 am 01:55 Clear 20 -6.7 18 -7.7 93 93 NW 7 11 30.18 1022 10 16.0934 0 0
2:15 am 02:15 Clear 20 -6.6 18 -7.7 92 92 NW 7 11 30.17 1022 10 16.0934 0 0
2:35 am 02:35 Clear 20 -6.6 17 -8.2 89 89 NNW 8 13 30.18 1022 10 16.0934 0 0
2:55 am 02:55 Clear 21 -5.9 18 -7.9 86 86 NNW 6 9 30.17 1022 10 16.0934 0 0
3:15 am 03:15 Clear 20 -6.6 17 -8.5 87 87 WNW 7 11 30.17 1022 10 16.0934 0 0
3:35 am 03:35 Clear 19 -7 16 -8.7 88 88 NW 6 9 30.18 1022 10 16.0934 0 0
3:55 am 03:55 Clear 20 -6.7 17 -8.6 87 87 WNW 5 7 30.19 1022 10 16.0934 0 0
4:15 am 04:15 Clear 19 -7.1 16 -8.7 89 89 WNW 7 11 30.2 1023 10 16.0934 0 0
4:35 am 04:35 Clear 19 -7.1 16 -8.7 89 89 WNW 7 11 30.21 1023 10 16.0934 0 0
4:55 am 04:55 Clear 20 -6.9 16 -8.9 86 86 WNW 3 6 30.2 1023 10 16.0934 0 0
5:15 am 05:15 Clear 19 -7 16 -9 86 86 Calm 30.21 1023 10 16.0934 0 0
5:35 am 05:35 Clear 19 -7.3 15 -9.4 85 85 Calm 30.22 1023 10 16.0934 0 0
5:55 am 05:55 Clear 19 -7.2 15 -9.5 84 84 NE 3 6 30.22 1023 10 16.0934 0 0
6:15 am 06:15 Clear 18 -7.6 15 -9.6 86 86 E 7 11 30.24 1024 10 16.0934 0 0
6:35 am 06:35 Clear 18 -7.9 15 -9.7 87 87 E 5 7 30.25 1024 10 16.0934 0 0
6:55 am 06:55 Clear 17 -8.1 15 -9.7 88 88 E 5 7 30.25 1024 10 16.0934 0 0
7:15 am 07:15 Clear 18 -7.7 15 -9.5 87 87 ENE 5 7 30.26 1025 10 16.0934 0 0
7:35 am 07:35 Clear 17 -8.4 14 -9.9 89 89 E 6 9 30.26 1025 10 16.0934 0 0
7:55 am 07:55 Clear 17 -8.6 14 -10.1 89 89 NNE 5 7 30.27 1025 10 16.0934 0 0
8:15 am 08:15 Sunny 16 -9 13 -10.3 90 90 ENE 3 6 30.27 1025 10 16.0934 0 0
8:35 am 08:35 Sunny 16 -8.8 14 -10.1 90 90 ENE 3 6 30.27 1025 10 16.0934 0 0
8:55 am 08:55 Sunny 19 -7.5 16 -9.1 88 88 ENE 6 9 30.24 1024 10 16.0934 0 0
9:15 am 09:15 Sunny 20 -6.7 17 -8.5 87 87 E 6 9 30.25 1024 10 16.0934 0 0
9:35 am 09:35 Sunny 21 -6.1 17 -8.2 85 85 E 6 9 30.25 1024 10 16.0934 0 0
9:55 am 09:55 Sunny 21 -6.2 17 -8.1 87 87 E 5 7 30.24 1024 10 16.0934 0 0
10:15 am 10:15 Sunny 22 -5.4 19 -7.5 85 85 E 7 11 30.23 1024 10 16.0934 0 0
10:35 am 10:35 Sunny 23 -4.8 19 -7.3 83 83 E 7 11 30.23 1024 10 16.0934 0 0
10:55 am 10:55 Sunny 24 -4.2 20 -6.6 84 84 ESE 7 11 30.22 1023 10 16.0934 0 0
11:15 am 11:15 Sunny 26 -3.6 20 -6.4 81 81 ESE 6 9 30.2 1023 10 16.0934 0 0
11:35 am 11:35 Sunny 27 -2.9 21 -6.1 79 79 E 9 15 30.19 1022 10 16.0934 0 0
11:55 am 11:55 Sunny 28 -2.1 21 -5.9 76 76 E 9 15 30.18 1022 10 16.0934 0 0
12:15 pm 12:15 Sunny 29 -1.5 22 -5.3 76 76 ESE 8 13 30.15 1021 10 16.0934 0 0
12:30 pm 12:30 Sunny 29 -1.5 22 -5.8 73 73 E 10 17 30.14 1021 10 16.0934 0 0
12:55 pm 12:55 Sunny 30 -1.1 22 -5.6 72 72 E 10 17 30.11 1020 10 16.0934 0 0
1:15 pm 13:15 Sunny 31 -0.6 23 -5.1 72 72 E 10 17 30.08 1019 10 16.0934 0 0
1:35 pm 13:35 Sunny 31 -0.7 22 -5.3 71 71 E 9 15 30.07 1018 10 16.0934 0 0
1:55 pm 13:55 Sunny 31 -0.5 23 -5 72 72 E 10 17 30.05 1018 10 16.0934 0 0
2:15 pm 14:15 Sunny 32 -0.1 23 -5.1 69 69 ESE 13 20 30.03 1017 10 16.0934 0 0
2:35 pm 14:35 Sunny 32 -0.1 23 -4.8 71 71 ESE 13 20 30.03 1017 10 16.0934 0 0
2:55 pm 14:55 Sunny 32 0 24 -4.5 72 72 SE 10 17 30.03 1017 10 16.0934 0 0
3:15 pm 15:15 Sunny 32 0.1 24 -4.5 72 72 ESE 12 19 30.01 1016 10 16.0934 0 0
3:35 pm 15:35 Sunny 32 0 24 -4.5 72 72 ESE 13 20 30 1016 10 16.0934 0 0
3:55 pm 15:55 Sunny 32 0 24 -4.3 73 73 ESE 13 20 30 1016 10 16.0934 0 0
4:15 pm 16:15 Sunny 32 0 24 -4.3 73 73 ESE 12 19 30.01 1016 10 16.0934 0 0
4:35 pm 16:35 Sunny 32 -0.1 24 -4.2 74 74 ESE 12 19 30.01 1016 10 16.0934 0 0
4:55 pm 16:55 Sunny 31 -0.3 25 -4 76 76 ESE 14 22 29.99 1016 10 16.0934 0 0
5:15 pm 17:15 Sunny 31 -0.8 25 -4.1 79 79 ESE 13 20 29.99 1016 10 16.0934 0 0
5:35 pm 17:35 Clear 30 -1.1 25 -4 81 81 ESE 12 19 30 1016 10 16.0934 0 0
5:55 pm 17:55 Clear 29 -1.4 24 -4.2 81 81 ESE 12 19 30 1016 10 16.0934 0 0
6:15 pm 18:15 Clear 29 -1.7 25 -4.1 84 84 E 9 15 30 1016 10 16.0934 0 0
6:35 pm 18:35 Mostly Cloudy 29 -1.5 25 -4 83 83 ESE 9 15 30 1016 10 16.0934 0 0
6:55 pm 18:55 Cloudy 29 -1.5 26 -3.6 86 86 ESE 8 13 30 1016 10 16.0934 0 0
7:15 pm 19:15 Cloudy 30 -1 27 -3 86 86 SE 13 20 30 1016 10 16.0934 0 0
7:35 pm 19:35 Cloudy 30 -1 28 -2.4 90 90 ESE 10 17 30.01 1016 10 16.0934 0 0
7:55 pm 19:55 Cloudy 30 -1.1 28 -2 94 94 ESE 10 17 30.01 1016 10 16.0934 0 0
8:15 pm 20:15 Cloudy 30 -1.2 29 -1.8 96 96 ESE 9 15 30 1016 7 11.26538 0 0
8:35 pm 20:35 Cloudy with Mist and Fog 29 -1.5 28 -2 96 96 ESE 9 15 30 1016 5 8.0467 0 0
8:55 pm 20:55 Cloudy with Mist and Fog 29 -1.5 29 -1.9 97 97 E 10 17 30 1016 5 8.0467 0 0
9:15 pm 21:15 Cloudy with Mist and Fog 29 -1.7 28 -2 98 98 ESE 8 13 30 1016 4 6.43736 0 0
9:35 pm 21:35 Cloudy with Mist and Fog 29 -1.8 28 -2 99 99 E 7 11 30.01 1016 1.5 2.41401 0 0
9:55 pm 21:55 Cloudy with Mist and Fog 29 -1.8 29 -1.8 100 100 E 9 15 30.01 1016 1 1.60934 0 0
10:15 pm 22:15 Cloudy with Freezing Fog 29 -1.8 29 -1.8 100 100 E 9 15 30.01 1016 0.5 0.80467 0 0
10:35 pm 22:35 Cloudy with Freezing Fog 29 -1.8 29 -1.8 100 100 E 7 11 30.02 1017 0.5 0.80467 0 0
10:55 pm 22:55 Cloudy with Mist and Fog 28 -2 28 -2 100 100 E 7 11 30.03 1017 0.75 1.207005 0 0
11:15 pm 23:15 Cloudy with Mist and Fog 29 -1.9 29 -1.9 100 100 E 8 13 30.02 1016 1 1.60934 0 0
11:35 pm 23:35 Cloudy with Mist and Fog 28 -2 28 -2 100 100 E 7 11 30.03 1017 1 1.60934 0 0
11:55 pm 23:55 Cloudy with Mist and Fog 28 -2 28 -2 100 100 E 6 9 30.02 1016 1.25 2.011675 0 0

Powered by AerisWeather